This is the latest recevied weather packets stored in our database for station/object DG9MHV-10. If no packets are shown the sender has not sent any weather packets the latest 10 day(s).
| Time | Temp. | Humidity | Pressure | Rain* | Wind** | Luminosity | Snow |
|---|---|---|---|---|---|---|---|
| 1777962370 | 26.67° C | 100% | 1009.2 hPa | - | - | - | - |
| 1777961470 | 24.44° C | 100% | 1009 hPa | - | - | - | - |
| 1777960570 | 23.89° C | 100% | 1008.6 hPa | - | - | - | - |
| 1777959670 | 23.89° C | 100% | 1008.3 hPa | - | - | - | - |
| 1777958770 | 22.78° C | 100% | 1007.9 hPa | - | - | - | - |
| 1777957870 | 21.11° C | 100% | 1007.2 hPa | - | - | - | - |
| 1777956969 | 18.33° C | 100% | 1005.8 hPa | - | - | - | - |
| 1777956069 | 15° C | 100% | 1008.4 hPa | - | - | - | - |
| 1777955169 | 11.11° C | 100% | 1009.4 hPa | - | - | - | - |
| 1777954269 | 8.89° C | 100% | 1008.8 hPa | - | - | - | - |
| 1777953369 | 8.89° C | 100% | 1008.5 hPa | - | - | - | - |
| 1777952469 | 8.89° C | 100% | 1008.4 hPa | - | - | - | - |
| 1777951569 | 9.44° C | 100% | 1008.3 hPa | - | - | - | - |
| 1777950668 | 9.44° C | 100% | 1008.5 hPa | - | - | - | - |
| 1777949768 | 9.44° C | 100% | 1008.8 hPa | - | - | - | - |
| 1777948869 | 9.44° C | 100% | 1008.9 hPa | - | - | - | - |
| 1777947968 | 9.44° C | 100% | 1008.9 hPa | - | - | - | - |
| 1777947068 | 9.44° C | 100% | 1009.1 hPa | - | - | - | - |
| 1777946171 | 9.44° C | 100% | 1009.1 hPa | - | - | - | - |
| 1777945271 | 10° C | 100% | 1009 hPa | - | - | - | - |
| 1777944368 | 10° C | 100% | 1009 hPa | - | - | - | - |
| 1777943468 | 10.56° C | 100% | 1009.1 hPa | - | - | - | - |
| 1777942568 | 10.56° C | 100% | 1009.2 hPa | - | - | - | - |
| 1777941668 | 11.11° C | 100% | 1009.2 hPa | - | - | - | - |
| 1777940768 | 11.11° C | 100% | 1009.3 hPa | - | - | - | - |
* Rain since midnight (hover to see other rain measurements)
** Current wind speed in m/s (hover to see current wind gust speed)